RH
18 19 19 19 19 19 20 19 19 19 21 23 26 27 28 29 29 28 28 29 30 30 31 31 31 30 28 31 34 38 42 45 46 46 46 47 49 50 50 50 53 56 58 59 57 56 52 50 50 51 55 57 58 58 58 58 58 58 56 52 50 51 50 48 48 47 47 45 46 46 44 44 45 46 44 44 46 45 44 44 45 44 43 41 41 40 40 40
18 18 18 19 19 19 19 19 20 19 18 19 22 25 27 28 29 29 28 28 29 30 30 30 31 31 29 29 32 35 38 40 43 42 43 44 47 50 50 50 52 54 57 59 58 57 53 51 50 51 56 59 60 61 61 61 61 62 60 57 54 53 49 45 45 45 45 43 43 44 42 42 43 44 44 45 47 45 47 46 44 44 44 42 42 42 42 43
18 17 18 18 18 19 19 19 20 20 19 18 19 22 25 27 27 28 28 27 27 28 29 29 30 31 31 29 30 34 35 36 37 37 38 40 45 51 52 51 51 52 55 57 59 59 56 54 52 52 57 60 61 62 64 64 65 63 61 60 57 53 48 45 44 44 44 42 42 43 41 41 40 41 43 45 45 45 48 48 46 46 45 44 44 44 43 44
17 17 17 18 18 19 20 20 20 20 20 19 18 18 21 24 26 27 28 28 27 27 28 28 29 29 30 30 30 33 35 35 35 34 34 36 43 49 51 52 51 50 52 56 59 61 60 57 56 56 58 60 60 61 63 63 63 62 60 59 55 49 46 44 43 43 44 42 41 42 43 43 40 40 42 42 44 46 46 45 45 45 45 46 45 46 46 46
13 15 16 16 17 17 18 19 20 21 21 21 20 18 18 20 23 25 27 27 26 27 27 28 29 29 29 29 30 31 33 34 33 34 33 34 39 44 48 51 51 50 52 55 57 60 61 59 58 58 58 57 56 58 60 59 59 59 58 56 53 48 44 42 42 42 42 42 41 42 44 44 41 42 42 41 44 45 42 40 41 42 44 46 46 47 48 49
8 10 12 13 14 15 16 17 18 19 20 21 21 20 18 17 18 22 25 26 26 26 26 26 27 29 28 28 30 31 33 34 32 33 34 33 35 40 44 47 49 51 52 54 55 57 59 59 58 57 56 55 55 56 57 57 57 58 55 52 52 50 45 42 42 41 40 41 41 42 43 42 42 43 44 44 43 41 38 39 40 41 43 45 45 47 48 50
6 6 8 8 10 11 12 13 14 15 17 18 20 21 20 18 16 17 20 24 26 26 25 26 26 27 28 28 30 31 33 33 32 32 32 34 35 36 40 43 47 50 49 51 53 54 55 58 58 55 54 54 53 55 54 54 55 56 53 50 49 49 46 43 42 41 40 39 38 39 41 41 43 44 44 45 44 42 41 41 41 41 43 45 46 47 48 50
6 5 5 6 6 7 8 9 10 12 13 15 17 19 20 20 19 16 16 18 22 25 26 25 24 26 26 27 29 30 33 35 33 32 31 32 34 35 36 39 43 45 46 47 48 49 51 54 56 54 54 53 51 51 51 52 53 53 52 50 48 46 45 44 43 44 42 40 38 39 41 41 43 44 42 44 44 44 44 42 42 41 43 45 46 48 49 49
7 6 5 5 5 5 6 7 7 8 9 11 12 15 17 19 19 19 17 15 16 20 24 25 24 24 24 26 27 29 33 38 38 34 31 30 32 34 34 35 38 41 43 43 42 45 48 49 52 52 52 51 49 49 46 49 51 50 50 47 46 44 45 46 45 45 45 42 41 40 42 41 42 43 41 41 42 43 45 44 43 42 42 43 45 47 48 49
8 8 6 6 5 5 5 5 5 6 6 7 8 10 13 15 17 18 19 17 15 15 17 21 24 23 23 24 27 27 31 39 40 35 32 30 30 31 32 33 34 37 40 40 39 41 45 46 47 49 50 50 48 45 43 44 44 43 47 46 44 43 44 45 44 46 46 44 43 42 44 42 40 42 41 38 40 41 44 46 47 45 42 42 43 46 47 48
10 9 8 7 6 5 5 4 4 5 5 5 6 7 8 11 13 16 17 18 17 16 14 15 19 21 21 22 24 27 29 35 37 36 33 31 30 29 29 30 30 32 35 37 37 37 42 45 46 47 49 47 44 42 39 40 39 38 43 42 40 41 42 44 44 45 47 45 43 43 44 41 39 40 39 37 38 39 41 44 47 49 47 43 43 44 45 46
11 10 10 9 8 6 6 5 4 4 4 4 5 5 6 7 8 11 12 14 15 16 15 14 14 15 17 18 21 25 27 31 34 34 34 32 31 30 30 30 29 29 31 33 33 34 40 46 46 46 46 44 43 40 37 37 37 37 38 38 40 41 40 42 42 44 45 44 43 44 43 40 39 38 36 35 37 39 39 41 44 47 49 48 47 45 44 44
12 11 11 10 9 8 7 6 5 5 4 4 4 4 5 5 6 6 8 9 12 13 14 14 14 13 13 14 17 20 22 27 29 30 31 30 30 30 31 31 30 28 29 32 31 31 38 42 43 45 44 43 42 38 35 34 34 35 35 36 38 39 40 39 39 42 43 43 42 44 44 38 38 38 37 36 35 37 40 41 43 45 48 49 50 48 45 44
12 11 11 11 10 10 8 7 6 6 5 4 4 4 4 4 5 5 6 6 8 9 11 12 13 13 13 13 14 15 16 21 24 25 26 26 26 27 29 30 30 28 28 31 31 30 33 36 41 45 43 42 40 36 35 34 33 33 32 36 38 37 38 37 36 39 40 41 41 44 44 34 32 35 37 37 33 34 39 41 44 45 46 48 50 50 47 46
11 11 11 11 11 10 10 9 7 7 6 5 4 4 4 4 4 4 4 5 5 6 7 9 11 12 13 13 12 12 13 14 18 21 22 22 23 25 26 26 28 28 27 28 30 30 30 33 42 45 41 38 37 35 35 35 36 35 31 36 39 35 36 35 33 35 35 38 39 42 43 34 30 32 32 34 33 33 36 40 44 46 46 47 49 49 47 47
10 11 11 10 10 10 10 10 9 8 7 6 6 5 4 4 4 4 4 4 5 5 7 7 8 9 10 11 10 11 11 11 15 18 18 19 21 22 23 24 25 26 26 26 27 30 30 31 38 42 38 34 34 34 35 36 37 37 32 32 35 32 32 32 31 31 32 37 38 38 39 34 31 32 32 33 34 34 36 40 43 45 47 46 46 46 46 46
9 10 10 10 10 10 10 10 10 10 9 7 7 6 5 4 4 4 4 4 4 5 6 7 8 8 8 8 9 9 10 11 12 15 16 16 18 20 22 23 22 23 24 23 25 27 29 29 30 35 35 32 33 33 34 36 36 36 32 29 30 28 26 26 28 29 31 34 36 37 37 31 27 31 33 34 35 37 38 40 43 46 47 45 44 45 45 44
8 8 9 10 10 10 10 10 10 10 10 8 8 7 6 6 5 5 5 5 5 6 7 8 8 8 7 7 8 9 9 10 10 12 14 15 17 19 21 21 21 21 22 20 20 22 26 26 25 27 30 31 32 32 32 34 32 30 29 27 26 25 24 23 24 26 28 31 33 35 35 30 26 27 32 35 37 38 38 40 42 44 46 46 44 44 45 44
7 8 8 9 9 9 9 10 10 10 10 9 9 8 8 8 7 7 7 7 7 7 7 8 7 6 7 6 7 9 9 9 9 11 13 15 15 16 19 19 19 20 19 18 17 17 18 20 21 21 24 28 32 32 30 29 28 27 26 25 24 23 21 20 20 22 25 27 30 30 28 28 25 24 28 32 37 39 40 40 41 42 44 45 44 43 43 42
7 7 7 8 8 9 9 9 10 11 10 10 9 9 9 9 9 9 9 8 7 6 6 7 6 5 6 7 8 9 9 8 9 9 11 12 13 14 17 18 18 18 17 17 16 15 14 16 18 18 21 25 26 28 27 25 25 26 24 22 21 20 18 16 17 21 22 23 26 26 24 24 23 23 24 27 34 39 41 41 41 41 42 44 44 42 43 41
7 7 7 8 7 8 9 8 10 12 11 10 9 9 10 10 11 11 10 8 7 6 6 6 6 5 6 8 8 9 8 8 8 9 9 10 11 13 16 17 17 18 17 15 14 13 13 14 15 15 18 21 21 22 23 23 25 25 23 20 19 18 17 15 16 20 21 20 23 24 24 24 22 23 23 25 31 35 38 40 41 41 40 42 43 41 42 41
7 7 7 7 7 8 9 9 10 11 12 11 9 10 11 12 13 13 12 11 9 7 6 6 6 6 6 7 8 8 8 9 8 9 9 9 10 12 14 16 17 17 15 12 13 13 13 13 13 12 15 16 17 18 19 22 25 26 23 19 18 18 16 16 16 20 20 18 21 24 23 23 23 24 24 24 27 27 28 31 34 38 39 41 41 41 41 40
8 7 7 7 7 7 8 10 11 11 12 11 11 11 11 13 13 12 12 13 12 8 7 7 6 7 7 7 7 7 7 8 8 9 9 9 10 12 12 15 15 14 12 12 13 14 13 12 11 11 12 12 12 14 16 20 24 25 21 16 17 17 15 15 15 19 20 19 24 25 22 22 23 24 23 21 22 22 23 24 28 33 36 38 39 39 39 39
9 8 7 7 7 7 8 10 12 13 12 11 10 11 12 13 12 12 12 13 13 10 8 8 8 8 8 8 7 7 7 7 7 8 8 8 10 11 11 12 13 12 12 12 12 12 12 11 10 10 10 11 11 13 15 17 20 21 18 16 17 17 14 13 13 16 19 21 24 24 23 22 20 22 22 19 20 21 21 23 27 31 34 37 38 38 38 38
11 9 8 7 7 7 7 8 11 13 12 11 10 11 12 12 11 12 12 12 12 11 9 9 9 9 8 8 7 7 7 7 6 7 7 8 8 9 9 10 10 11 12 11 11 11 10 9 9 9 9 10 10 12 14 15 16 17 17 18 18 15 14 13 12 14 16 18 18 19 23 24 21 21 21 20 22 22 22 25 27 28 32 35 37 38 37 38
14 11 9 8 7 7 7 9 11 12 13 12 11 11 11 11 11 12 12 12 10 9 9 9 10 9 9 8 8 7 7 7 6 7 7 8 8 8 8 9 9 9 10 10 9 9 9 7 7 8 8 8 9 11 13 14 14 14 17 19 16 15 14 13 12 11 11 13 13 16 22 24 20 19 20 24 26 24 24 28 28 27 30 33 34 35 36 37
15 14 11 10 8 7 9 10 10 12 13 12 12 12 11 10 11 11 11 12 10 8 9 9 9 10 10 9 9 8 8 8 7 7 8 8 8 8 8 8 8 8 9 8 8 8 7 6 6 6 7 7 8 10 12 13 12 12 15 15 14 14 14 12 10 9 11 11 13 17 21 22 20 16 20 26 26 26 28 30 30 28 29 32 33 34 35 36
15 14 13 12 10 8 8 9 10 11 12 13 13 13 12 10 11 11 11 12 10 8 9 9 8 9 9 10 10 9 9 9 8 8 8 8 9 9 8 9 8 8 9 7 8 8 7 7 6 6 7 8 8 9 11 12 12 12 13 13 13 13 11 10 8 10 13 11 12 17 17 20 21 17 21 27 25 26 29 29 29 29 28 31 31 32 33 34
15 14 14 13 12 11 8 8 10 11 12 13 13 13 13 11 11 11 12 11 9 8 9 9 9 9 10 10 10 10 9 9 9 10 9 9 10 9 9 10 9 9 9 8 8 8 8 8 7 7 8 8 9 10 11 11 11 12 11 12 13 13 14 13 10 10 13 11 12 15 14 16 18 17 21 26 25 26 27 28 29 29 27 28 28 28 29 31
16 15 14 13 13 12 10 9 10 11 12 12 12 12 11 11 12 12 12 11 8 8 9 9 10 11 10 10 10 11 10 9 9 10 10 11 11 10 11 10 10 10 10 9 9 9 8 8 9 8 8 9 9 10 10 10 10 10 10 11 11 12 14 17 18 14 11 13 15 15 14 13 15 18 23 25 25 26 26 27 29 29 26 26 27 27 27 28
17 15 14 14 13 13 12 11 10 11 12 12 11 11 10 12 15 14 12 11 8 8 9 9 11 11 10 11 11 11 11 11 10 10 11 11 11 11 11 11 11 12 12 10 9 10 9 8 9 9 8 9 9 9 9 10 11 10 12 12 11 14 15 15 20 14 10 17 17 14 15 13 14 19 23 26 27 28 29 28 29 29 27 27 27 27 27 28
17 17 16 14 13 13 13 12 12 12 12 13 11 11 11 12 13 12 11 10 8 8 9 10 11 11 11 12 12 12 12 12 12 11 11 12 11 11 11 11 12 11 12 12 10 10 10 9 9 8 8 9 8 9 10 10 12 12 14 14 13 17 16 16 22 16 12 16 13 14 16 13 16 20 23 27 29 31 33 32 32 31 28 28 28 27 28 30
17 18 17 15 14 13 12 12 14 13 14 14 12 12 13 13 13 12 12 10 8 8 9 10 12 11 12 13 14 13 12 12 12 12 12 12 12 11 10 11 11 10 11 12 11 10 9 9 10 8 8 9 7 9 11 12 14 12 14 15 14 17 16 19 27 20 14 14 12 14 16 15 20 23 23 27 29 33 37 38 37 35 32 30 29 29 30 30
17 18 17 16 15 13 12 12 13 14 16 15 14 15 14 13 14 15 12 10 9 9 10 12 12 11 12 14 15 14 13 13 13 12 12 12 11 11 11 11 11 11 12 12 11 10 10 10 10 8 8 8 8 10 11 13 14 13 14 13 14 17 15 17 23 16 12 14 13 14 16 18 21 21 23 26 29 35 39 40 39 36 34 32 30 31 31 29
17 17 17 17 16 14 13 12 12 14 16 16 18 18 15 13 15 16 13 11 10 10 11 13 12 11 12 15 15 15 15 15 14 13 13 12 12 13 13 12 12 12 12 12 12 11 10 10 10 8 8 9 10 11 11 12 12 13 14 13 14 16 16 16 17 15 13 14 15 16 16 19 22 21 26 28 30 35 39 41 41 38 36 34 34 34 31 30
17 17 17 17 17 15 14 12 13 14 16 16 18 18 18 16 15 16 16 13 11 11 11 12 12 12 13 15 15 15 14 14 14 14 14 14 13 14 13 12 13 13 12 12 13 12 10 10 9 9 9 10 11 12 12 12 12 14 14 14 14 14 14 14 14 16 15 12 15 19 20 23 23 23 29 30 29 34 39 42 43 42 41 38 36 35 32 32
18 18 18 18 18 17 16 14 14 16 16 16 17 19 21 18 15 17 17 14 13 12 12 13 13 13 14 14 15 14 13 13 13 13 14 14 14 14 14 14 14 14 14 13 12 12 11 10 10 10 10 11 12 12 14 12 12 14 14 13 14 12 13 13 12 15 16 15 20 23 24 28 26 25 29 31 30 33 39 43 43 44 44 40 37 36 35 35
22 21 18 19 20 19 18 17 17 18 17 17 20 25 24 19 16 17 17 15 15 15 14 15 15 14 14 15 15 14 13 14 14 14 15 15 15 15 15 14 14 14 15 13 13 13 12 11 11 12 12 12 13 13 14 13 13 14 14 14 12 12 14 13 12 14 14 19 27 29 28 28 26 28 30 30 30 34 40 44 43 44 45 43 39 37 36 36
26 25 23 22 23 22 20 20 20 21 19 19 24 26 21 19 18 16 16 17 17 17 16 16 16 15 15 16 16 15 15 16 16 16 16 16 16 15 14 15 15 14 14 13 13 13 13 13 13 13 13 14 15 15 14 14 14 13 13 13 12 14 15 13 13 13 13 21 29 27 26 26 26 29 30 29 31 35 41 44 44 44 45 43 40 37 36 36
29 29 27 26 25 24 23 21 21 22 22 23 27 25 20 19 19 17 17 17 17 17 17 16 16 16 17 17 16 16 18 18 18 18 17 16 16 16 15 16 15 15 14 12 13 14 13 13 14 14 14 14 15 16 14 14 15 14 14 14 12 13 14 13 13 13 14 23 32 28 25 26 27 30 31 30 32 38 43 44 44 44 44 44 41 38 38 38
33 31 31 29 27 27 25 23 23 25 27 26 25 25 22 20 20 19 18 16 17 17 16 16 16 16 16 17 17 18 19 20 19 18 18 17 17 18 17 17 17 16 15 14 14 14 13 13 15 16 14 14 15 16 15 14 15 15 15 15 14 13 14 13 14 16 15 19 28 29 25 25 28 30 32 34 36 41 45 44 44 46 46 47 43 40 41 41
34 35 34 31 29 28 26 26 26 27 28 26 23 23 23 22 21 19 17 16 17 16 16 16 15 16 17 17 18 19 19 20 19 18 18 18 18 19 18 18 17 16 16 16 16 16 15 15 15 16 16 15 15 16 16 15 15 16 14 14 15 14 15 13 14 17 16 17 26 28 24 25 31 34 36 39 42 45 46 46 46 48 49 48 43 42 43 42
35 36 36 34 32 29 27 27 28 27 27 24 21 21 21 21 21 19 18 18 17 17 16 16 15 15 16 17 17 19 19 19 19 18 18 18 19 19 19 19 19 18 17 16 16 17 17 16 15 19 23 21 17 17 18 16 15 15 14 14 15 15 15 15 16 18 17 21 28 28 26 28 32 38 42 44 46 48 48 49 49 49 50 47 43 43 43 42
36 37 37 36 35 32 28 27 27 28 29 25 21 21 20 20 20 20 19 18 18 18 17 17 16 15 16 16 17 18 19 19 19 18 18 19 19 19 19 20 20 20 19 17 17 16 17 18 17 19 23 23 21 20 18 17 17 15 15 16 16 16 16 16 17 17 16 22 27 26 28 32 33 39 45 45 47 50 50 50 49 49 49 47 45 45 43 43
37 38 36 36 36 34 32 30 27 28 29 26 23 23 21 21 20 20 19 18 18 18 18 18 17 16 16 17 17 19 20 19 19 19 19 20 19 19 20 20 20 22 23 21 18 15 17 21 21 20 21 22 24 23 19 18 18 16 16 16 16 16 16 16 19 18 17 25 31 29 30 34 36 41 45 46 48 50 51 50 49 49 48 47 46 45 43 43
39 39 39 38 37 36 35 33 30 28 28 27 27 25 23 22 21 19 19 19 18 19 19 18 18 17 17 17 17 19 21 20 19 19 20 20 20 20 20 20 20 21 22 21 18 18 21 23 24 26 25 23 23 24 22 20 18 16 17 16 16 18 19 19 20 20 21 29 34 34 35 35 37 43 45 47 49 49 50 50 48 49 48 48 47 45 43 41
40 42 43 41 40 39 38 36 35 32 30 29 29 27 24 23 22 20 20 21 20 19 19 20 19 19 18 17 18 19 21 21 20 20 20 21 21 21 20 21 22 20 20 19 19 20 23 22 22 25 23 22 23 23 21 20 18 16 17 16 18 21 21 21 21 22 27 29 30 37 41 37 37 42 45 48 50 48 48 48 47 49 49 48 47 44 41 39
42 41 42 42 43 43 41 39 39 37 33 32 32 31 28 27 27 26 24 24 22 21 20 20 21 21 20 18 18 19 22 23 22 22 22 21 22 23 21 22 22 22 21 20 20 22 23 22 21 21 20 21 22 21 20 19 18 17 17 18 20 22 22 24 26 28 29 28 28 37 41 36 36 42 44 44 46 46 46 46 48 49 49 48 45 42 40 38
43 41 41 42 44 43 42 40 40 39 37 37 38 35 32 33 32 31 29 26 25 24 23 22 23 23 22 21 21 23 24 23 24 24 24 22 23 23 23 23 23 23 22 22 22 23 23 23 24 22 20 19 19 20 20 19 17 18 19 22 25 27 27 29 32 34 33 33 35 39 40 37 38 41 42 41 42 45 45 46 48 50 49 48 44 40 39 38
43 43 42 42 45 45 42 40 40 41 40 40 41 38 35 36 36 34 32 29 29 30 27 27 27 25 24 24 24 25 24 24 25 26 25 24 25 24 24 23 23 23 23 23 24 23 21 23 26 25 22 21 20 20 20 19 20 21 23 26 29 30 30 31 33 35 35 38 41 39 37 37 40 43 45 44 44 46 47 48 50 50 49 48 45 40 38 36
44 43 41 43 49 49 46 41 41 44 44 43 43 41 39 39 38 37 35 32 31 32 31 31 32 28 25 26 25 24 24 25 26 27 26 26 25 24 24 23 22 23 24 24 24 24 23 23 26 27 24 22 20 20 21 22 22 23 25 28 30 31 31 31 32 35 37 38 39 36 34 37 41 45 48 47 46 48 49 51 52 50 48 47 44 40 38 36
44 43 41 43 47 49 48 46 44 45 45 43 43 43 42 41 40 38 38 35 32 33 33 33 33 29 26 27 27 26 26 26 27 28 28 28 27 27 27 25 23 22 23 24 25 26 26 24 24 25 24 22 21 20 23 25 25 26 27 28 31 33 33 32 32 36 39 38 36 35 34 38 43 46 47 48 49 50 51 51 50 48 47 46 44 42 40 37